Regional Weather Roundup
Issued by NWS Boston, MA

Home | Current Version | Previous Version | Text Only | Print | Product List | Glossary On
Versions: 1 2 3 4 5 6 7 8 9 10 11 12 13 14 15 16 17 18 19 20 21 22 23 24 25 26 27 28 29 30 31 32 33 34 35 36 37 38 39 40 41 42 43 44 45 46 47 48 49 50
000
ASUS41 KBOX 050810
RWRBOX

REGIONAL WEATHER ROUNDUP
NATIONAL WEATHER SERVICE TAUNTON MA
300 AM EST THU MAR 05 2015

NOTE:  "FAIR" INDICATES FEW OR NO CLOUDS BELOW 12,000 FEET WITH NO
SIGNIFICANT WEATHER AND/OR OBSTRUCTIONS TO VISIBILITY.  THE FOLLOWING
OBSERVATION LOCATIONS DO NOT REPORT PRESENT WEATHER...PROVINCETOWN...
SMITHFIELD...BLOCK ISLAND...KEENE...AND OXFORD.

MAZALL-050900-
EASTERN MASSACHUSETTS

CITY           SKY/WX    TMP DP  RH WIND       PRES   REMARKS
BOSTON         CLOUDY    37  26  64 W7        29.86S WCI  32
BEVERLY        CLOUDY    37  24  59 W6        29.84S
LAWRENCE       CLOUDY    37  22  54 VRB7      29.86S WCI  32
BEDFORD        CLOUDY    36  23  59 W10       29.84S WCI  28
BLUE HILL        N/A     34  26  72 NW13G22   29.82S WCI  25
NORWOOD        CLOUDY    37  26  64 W5        29.86R
MARSHFIELD     MIX PCPN  36  34  93 NW6       29.89R WCI  31
PLYMOUTH       LGT RAIN  35  33  92 NW7       29.86S FOG     WCI  29
TAUNTON        LGT RAIN  36  33  89 NW6       29.86S FOG     WCI  31
NEW BEDFORD    LGT RAIN  36  35  96 NW3       29.85S FOG
$$

MAZALL-050900-
CAPE COD AND THE ISLANDS

CITY           SKY/WX    TMP DP  RH WIND       PRES   REMARKS
FALMOUTH       LGT RAIN  36  34  93 CALM      29.85F VSB 1/2
HYANNIS        LGT RAIN  36  35  96 NW3       29.84S FOG
CHATHAM        LGT RAIN  33  33 100 CALM      29.85F FOG
PROVINCETOWN   CLOUDY    36  34  93 W8        29.87S WCI  29
NANTUCKET      LGT RAIN  36  34  92 W7        29.85S VSB 3/4 WCI  30
MARTHAS VNYRD  LGT RAIN  37  34  89 CALM      29.85F FOG
$$

MAZALL-050900-
CENTRAL AND WESTERN MASSACHUSETTS

CITY           SKY/WX    TMP DP  RH WIND       PRES   REMARKS
WORCESTER      CLOUDY    32  22  66 W13G20    29.82S WCI  22
FITCHBURG      CLOUDY    35  21  56 W8        29.87R WCI  29
ORANGE         CLOUDY    33  19  56 NW13G22   29.86F WCI  24
SPRINGFIELD    CLOUDY    35  20  55 NW10      29.87S WCI  27
WESTFIELD      CLOUDY    35  21  56 NW10      29.88F WCI  27
NORTH ADAMS    CLOUDY    30  20  66 W10G20    29.89R WCI  21
PITTSFIELD     CLOUDY    28  20  71 NW8       29.85F WCI  20
$$

RIZALL-050900-
RHODE ISLAND

CITY           SKY/WX    TMP DP  RH WIND       PRES   REMARKS
PROVIDENCE     LGT RAIN  35  32  88 N7        29.87S FOG     WCI  29
NEWPORT        LGT RAIN  36  35  96 NW5       29.85S FOG
BLOCK ISLAND   CLOUDY    37  34  87 W9        29.84F VSB 1   WCI  31
SMITHFIELD     CLOUDY    34  28  80 NW6       29.84S WCI  29
WESTERLY       LGT RAIN  36  35  96 NW7       29.88R FOG     WCI  30
$$

CTZALL-050900-
CONNECTICUT

CITY           SKY/WX    TMP DP  RH WIND       PRES   REMARKS
BRADLEY INTL   CLOUDY    37  22  54 NW8       29.88F WCI  31
HARTFORD       FLURRIES  34  29  82 VRB6      29.90F WCI  29
BRIDGEPORT     LGT RAIN  37  35  92 NW7       29.90R WCI  32
DANBURY        LGT SNOW  34  30  85 NW8       29.92R FOG     WCI  27
GROTON         LGT RAIN  35  34  96 N12       29.88R WCI  27
NEW HAVEN      MIX PCPN  37  34  89 N8        29.90R WCI  31
CHESTER        LGT SNOW  34  32  93 N8        29.88R WCI  27
MERIDEN        LGT SNOW  34  31  88 NW3       29.90R FOG
WILLIMANTIC    LGT SNOW  33  30  88 N3        29.89R FOG
OXFORD         CLOUDY    34  25  69 N9        29.89R WCI  26
$$

MEZ002-015-021-024-NHZ003-005-008-011-012-014-VTZ005-008-050900-
NORTHERN NEW ENGLAND

CITY           SKY/WX    TMP DP  RH WIND       PRES   REMARKS
PORTLAND ME    CLOUDY    37  18  46 W12       29.82R WCI  29
BANGOR ME      CLOUDY    33  15  47 NW7       29.77S WCI  27
CONCORD NH     CLOUDY    34  18  52 NW9       29.85S WCI  27
MANCHESTER NH  CLOUDY    35  18  49 W13G23    29.85R WCI  26
NASHUA NH      CLOUDY    36  16  44 NW15G26   29.86S WCI  27
PORTSMOUTH NH  CLOUDY    36  17  45 W13       29.82S WCI  28
JAFFREY NH     CLOUDY    31  15  52 NW7G16    29.83S WCI  24
KEENE NH       CLOUDY    34  16  47 NW9       29.86F WCI  26
BURLINGTON VT  CLOUDY    25   3  38 W10       29.95R WCI  15
MT. WASHINGTON MOCLDY     0  -6  78 NW66G75     N/A  WCI -35
$$

NYZ052-076-050900-
EASTERN NEW YORK

CITY           SKY/WX    TMP DP  RH WIND       PRES   REMARKS
ALBANY         FLURRIES  30  17  58 NW15G26   29.95R WCI  19
NEW YORK CITY  LGT RAIN  37  32  81 NW10      29.92R WCI  30
$$

ANZALL-050900-
MARINE OBSERVATIONS

STATION/POSITION TIME  TEMP    WIND        PRES    VSBY  WAVE
                       AIR SEA DIR/SP/G                  HT/PER
                 (UTC) (F)     (DEG/KT/KT) (MB)    (MI)  (FT/S)
BOSTON BUOY      0750   37 36  270/ 10/ 12 1011.1F         2/11
BUZZARDS BAY     0800          260/ 11/ 12 1011.7F
NANTUCKET SOUND  0750   33 31  260/  6/  6 1010.9F         1/10
MASS BAY-STELLWA 0704   37 36  250/ 10/ 12   N/A    1 7/8  3/11
ISLE OF SHOALS   0800   37     290/ 18/ 19 1009.6F
S OF BLOCK IS    0708      36                N/A           7/10
$$

......................KEY.........................
  SKY/WX - SKY CONDITION/PRESENT WEATHER
  TMP    - TEMPERATURE IN FAHRENHEIT
  DWPT   - DEWPOINT IN FAHRENHEIT
  RH     - RELATIVE HUMIDITY IN PERCENT
  WIND   - DIRECTION AND SPEED IN MPH
  PRES   - MEAN SEA LEVEL PRESSURE IN INCHES OF HG
  WCI    - WIND CHILL INDEX
  VSB    - VISIBILITY IN MILES
  HX     - HEAT INDEX
  TC     - TEMPERATURE IN CELSIUS
  VRB    - VARIABLE WIND DIRECTION
  N/A    - NOT AVAILABLE



USA.gov is the U.S. government's official web portal to all federal, state and local government web resources and services.